Location: Tamazert
(32.6352°N, 5.2072°W)
Time: 05:08:15
(UTC+00:00)

Vanguard 1 Rocket - Pass Details

Date: 06 October 2022
Orbit: 650 x 4225 km, 34.3° (Epoch: 04 December)

Event Time Altitude Azimuth Distance (km) Brightness Sun altitude
Rises 17:11:22 0° 225° (SW) 8,271 13.4 9.1°
Reaches altitude 10° 17:17:06 10° 222° (SW) 7,381 13.0 7.9°
Maximum altitude 17:42:25 60° 150° (SSE) 4,053 10.6 2.7°
Drops below altitude 10° 17:59:24 10° 76° (ENE) 5,259 10.6 -0.9°
Enters shadow 18:02:27 - 73° (ENE) 5,853 10.9 -1.5°
Sets 18:02:38 0° 73° (ENE) 5,891 - -1.6°
